Location: Adamstown South Public School
(32.9318°S, 151.7012°E)
Time: 17:55:02
(UTC+00:00)

YAOGAN 3 - Pass Details

Date: 07 June 2020
Orbit: 625 x 627 km, 98.0° (Epoch: 05 July)

Event Time Altitude Azimuth Distance (km) Brightness Sun altitude
Exits shadow 08:43:20 49° 164° (SSE) 817 4.9 -22.5°
Maximum altitude 08:44:30 87° 78° (ENE) 640 4.5 -22.7°
Drops below altitude 10° 08:48:52 10° 348° (NNW) 2,003 7.4 -23.6°
Sets 08:51:03 0° 347° (NNW) 2,901 8.3 -24.0°
